Weather History for KVYS - May, 2013

Change the Weather History Date:

Saturday, May 11, 2013

  Actual Average Record
Temperature  
Mean Temperature 50 °F -  
Max Temperature 60 °F 72 °F 89 °F (2011)
Min Temperature 41 °F 48 °F 35 °F (1969)
Degree Days  
Heating Degree Days 15    
Moisture  
Dew Point 38 °F    
Average Humidity 63    
Maximum Humidity 92    
Minimum Humidity 32    
Precipitation  
Precipitation 0.00 in - - ()
Sea Level Pressure  
Sea Level Pressure 29.97 in    
Wind  
Wind Speed 11 mph (WNW)    
Max Wind Speed 30 mph    
Max Gust Speed 40 mph    
Visibility 10 miles    
Events      
Averages and records for this station are not official NWS values.
T = Trace of Precipitation, MM = Missing Value Source: NWS Daily Summary

Daily Weather History Graph

Daily Weather History Graph

Search for Another Location

Airport or City:

Trip Planner

Search our weather history database for the weather conditions in past years. The results will help you decide how hot, cold, wet, or windy it might be!

Date:

Astronomy

May. 11, 2013 Rise Set
Actual Time 5:41 AM CDT 8:04 PM CDT
Civil Twilight 5:10 AM CDT 8:36 PM CDT
Nautical Twilight 4:32 AM CDT 9:14 PM CDT
Astronomical Twilight 3:49 AM CDT 9:57 PM CDT
Moon 6:49 AM CDT (5/11) 9:45 PM CDT (5/11)
Length of Visible Light 15h 25m
Length of Day
14h 23m
Waxing Crescent, 3% of the Moon is Illuminated
May 11
Waxing Crescent
May 17
First Quarter
May 24
Full
May 31
Last Quarter
Jun 8
New

Hourly Weather History & Observations

Time (CDT) Temp. Windchill Dew Point Humidity Pressure Visibility Wind Dir Wind Speed Gust Speed Precip Events Conditions
12:15 AM 50.2 °F - 45.7 °F 85% 29.98 in 10.0 mi NNE 6.9 mph - N/A   Overcast
12:35 AM 50.0 °F - 45.0 °F 83% 29.98 in 10.0 mi North 5.8 mph - N/A   Overcast
12:55 AM 49.5 °F - 44.6 °F 83% 29.98 in 10.0 mi North 4.6 mph - N/A   Overcast
1:15 AM 49.8 °F - 44.8 °F 83% 29.98 in 10.0 mi NNW 4.6 mph - N/A   Overcast
1:35 AM 50.0 °F - 45.0 °F 83% 29.98 in 10.0 mi North 3.5 mph - N/A   Overcast
1:55 AM 50.0 °F - 44.8 °F 82% 29.98 in 10.0 mi Calm Calm - N/A   Overcast
2:15 AM 49.5 °F - 44.2 °F 82% 29.98 in 10.0 mi Calm Calm - N/A   Overcast
2:35 AM 49.1 °F - 44.1 °F 83% 29.98 in 10.0 mi Calm Calm - N/A   Overcast
2:55 AM 49.1 °F - 44.8 °F 85% 29.98 in 10.0 mi West 3.5 mph - N/A   Overcast
3:15 AM 48.9 °F - 44.8 °F 86% 29.98 in 10.0 mi WSW 3.5 mph - N/A   Overcast
3:35 AM 49.1 °F - 45.0 °F 86% 29.98 in 10.0 mi SW 3.5 mph - N/A   Overcast
3:55 AM 49.1 °F - 46.0 °F 89% 29.97 in 10.0 mi SW 4.6 mph - N/A   Overcast
4:15 AM 49.6 °F - 46.0 °F 87% 29.97 in 10.0 mi SW 5.8 mph - N/A   Overcast
4:35 AM 49.5 °F - 46.0 °F 88% 29.96 in 10.0 mi WSW 5.8 mph - N/A   Overcast
4:55 AM 49.3 °F - 45.9 °F 88% 29.96 in 10.0 mi WSW 5.8 mph - N/A   Overcast
5:15 AM 48.4 °F - 45.1 °F 89% 29.95 in 10.0 mi SW 8.1 mph - N/A   Mostly Cloudy
5:35 AM 47.1 °F - 43.9 °F 88% 29.95 in 10.0 mi WSW 6.9 mph - N/A   Scattered Clouds
5:55 AM 47.3 °F - 44.6 °F 90% 29.94 in 10.0 mi SW 6.9 mph - N/A   Mostly Cloudy
6:15 AM 47.3 °F - 44.8 °F 91% 29.94 in 7.0 mi SW 6.9 mph - N/A   Scattered Clouds
6:35 AM 47.8 °F - 45.5 °F 92% 29.93 in 7.0 mi SSW 6.9 mph - N/A   Clear
6:55 AM 49.1 °F - 46.4 °F 90% 29.93 in 7.0 mi SW 8.1 mph - N/A   Clear
7:15 AM 50.0 °F - 46.6 °F 88% 29.93 in 7.0 mi SW 9.2 mph - N/A   Scattered Clouds
7:35 AM 51.1 °F - 47.1 °F 86% 29.92 in 7.0 mi SW 10.4 mph - N/A   Scattered Clouds
7:55 AM 52.7 °F - 48.2 °F 85% 29.92 in 10.0 mi SW 13.8 mph - N/A   Scattered Clouds
8:15 AM 54.3 °F - 48.9 °F 82% 29.91 in 10.0 mi WSW 12.7 mph - N/A   Clear
8:35 AM 54.3 °F - 48.7 °F 81% 29.91 in 10.0 mi SW 16.1 mph - N/A   Mostly Cloudy
8:55 AM 53.6 °F - 49.1 °F 85% 29.89 in 10.0 mi SW 11.5 mph - N/A   Overcast
9:15 AM 54.7 °F - 49.5 °F 83% 29.89 in 10.0 mi WSW 15.0 mph 24.2 mph N/A   Overcast
9:35 AM 54.9 °F - 49.5 °F 82% 29.88 in 10.0 mi West 19.6 mph 26.5 mph N/A   Overcast
9:55 AM 55.9 °F - 50.0 °F 80% 29.88 in 10.0 mi West 19.6 mph 26.5 mph N/A   Overcast
10:15 AM 57.4 °F - 50.0 °F 76% 29.88 in 10.0 mi West 16.1 mph 24.2 mph N/A   Overcast
10:35 AM 58.6 °F - 50.2 °F 73% 29.88 in 10.0 mi WNW 20.7 mph 25.3 mph N/A   Overcast
10:55 AM 58.3 °F - 48.6 °F 70% 29.89 in 10.0 mi WNW 18.4 mph 25.3 mph N/A   Overcast
11:15 AM 58.8 °F - 47.3 °F 66% 29.90 in 10.0 mi WNW 19.6 mph 26.5 mph N/A   Mostly Cloudy
11:35 AM 59.0 °F - 47.1 °F 65% 29.91 in 10.0 mi WNW 24.2 mph 31.1 mph N/A   Mostly Cloudy
11:55 AM 59.9 °F - 46.8 °F 62% 29.91 in 10.0 mi WNW 21.9 mph 27.6 mph N/A   Mostly Cloudy
12:15 PM 59.9 °F - 43.2 °F 54% 29.91 in 10.0 mi WNW 25.3 mph 34.5 mph N/A   Scattered Clouds
12:35 PM 59.4 °F - 40.8 °F 50% 29.91 in 10.0 mi WNW 24.2 mph 32.2 mph N/A   Scattered Clouds
12:55 PM 59.9 °F - 36.9 °F 42% 29.92 in 10.0 mi NW 24.2 mph 32.2 mph N/A   Scattered Clouds
1:15 PM 59.9 °F - 32.5 °F 36% 29.93 in 10.0 mi NNW 23.0 mph 38.0 mph N/A   Clear
1:35 PM 59.9 °F - 30.9 °F 33% 29.93 in 10.0 mi NW 21.9 mph 35.7 mph N/A   Clear
1:55 PM 59.9 °F - 30.0 °F 32% 29.93 in 10.0 mi NW 29.9 mph 34.5 mph N/A   Clear
2:15 PM 59.9 °F - 30.9 °F 33% 29.94 in 10.0 mi NW 27.6 mph 38.0 mph N/A   Clear
2:35 PM 59.9 °F - 31.3 °F 34% 29.94 in 10.0 mi NW 25.3 mph 34.5 mph N/A   Clear
2:55 PM 59.9 °F - 30.9 °F 33% 29.96 in 10.0 mi WNW 26.5 mph 40.3 mph N/A   Clear
3:15 PM 58.6 °F - 31.3 °F 36% 29.96 in 10.0 mi WNW 24.2 mph 33.4 mph N/A   Scattered Clouds
3:35 PM 59.0 °F - 31.5 °F 35% 29.97 in 10.0 mi NW 28.8 mph 38.0 mph N/A   Mostly Cloudy
3:55 PM 56.8 °F - 29.8 °F 36% 29.98 in 10.0 mi WNW 23.0 mph 34.5 mph N/A   Mostly Cloudy
4:15 PM 56.1 °F - 28.8 °F 35% 29.98 in 10.0 mi NW 27.6 mph 38.0 mph N/A   Mostly Cloudy
4:35 PM 56.7 °F - 29.8 °F 36% 29.99 in 10.0 mi WNW 28.8 mph 36.8 mph N/A   Mostly Cloudy
4:55 PM 56.3 °F - 29.1 °F 35% 30.00 in 10.0 mi WNW 20.7 mph 34.5 mph N/A   Mostly Cloudy
5:15 PM 55.6 °F - 26.6 °F 33% 30.01 in 10.0 mi NW 23.0 mph 29.9 mph N/A   Mostly Cloudy
5:35 PM 56.3 °F - 27.9 °F 34% 30.01 in 10.0 mi WNW 28.8 mph 36.8 mph N/A   Mostly Cloudy
5:55 PM 55.2 °F - 27.7 °F 35% 30.01 in 10.0 mi NW 24.2 mph 28.8 mph N/A   Scattered Clouds
6:15 PM 54.7 °F - 27.3 °F 35% 30.02 in 10.0 mi NW 21.9 mph 29.9 mph N/A   Scattered Clouds
6:35 PM 54.3 °F - 26.8 °F 35% 30.02 in 10.0 mi WNW 21.9 mph 33.4 mph N/A   Scattered Clouds
6:55 PM 52.7 °F - 27.7 °F 38% 30.03 in 10.0 mi NW 21.9 mph 28.8 mph N/A   Scattered Clouds
7:15 PM 52.7 °F - 30.2 °F 42% 30.03 in 10.0 mi NW 18.4 mph 29.9 mph N/A   Clear
7:35 PM 51.8 °F - 27.9 °F 40% 30.04 in 10.0 mi NW 18.4 mph - N/A   Clear
7:55 PM 50.7 °F - 28.9 °F 43% 30.05 in 10.0 mi NW 18.4 mph 26.5 mph N/A   Clear
8:15 PM 49.5 °F - 27.3 °F 42% 30.05 in 10.0 mi NW 19.6 mph 25.3 mph N/A   Clear
8:35 PM 48.4 °F - 27.5 °F 44% 30.06 in 10.0 mi NW 16.1 mph - N/A   Clear
8:55 PM 47.5 °F - 28.4 °F 48% 30.06 in 10.0 mi NW 11.5 mph - N/A   Clear
9:15 PM 46.6 °F - 28.9 °F 50% 30.07 in 10.0 mi WNW 10.4 mph - N/A   Clear
9:35 PM 46.4 °F 41.9 °F 29.1 °F 51% 30.07 in 10.0 mi WNW 9.2 mph - N/A   Clear
9:55 PM 45.0 °F 41.2 °F 29.5 °F 55% 30.08 in 10.0 mi WNW 6.9 mph - N/A   Clear
10:15 PM 43.7 °F 40.3 °F 30.2 °F 59% 30.08 in 10.0 mi WNW 5.8 mph - N/A   Clear
10:35 PM 41.4 °F 37.6 °F 31.1 °F 67% 30.08 in 10.0 mi West 5.8 mph - N/A   Clear
10:55 PM 41.7 °F 37.3 °F 31.3 °F 66% 30.08 in 10.0 mi West 6.9 mph - N/A   Clear
11:15 PM 43.3 °F 39.2 °F 31.6 °F 63% 30.08 in 10.0 mi WNW 6.9 mph - N/A   Scattered Clouds
11:35 PM 43.0 °F 37.7 °F 31.5 °F 64% 30.08 in 10.0 mi WNW 9.2 mph - N/A   Scattered Clouds
11:55 PM 43.3 °F 37.2 °F 31.1 °F 62% 30.09 in 10.0 mi WNW 11.5 mph - N/A   Scattered Clouds